SCP
1 1 1 1 1 1 1 1 0 0 0 0 0 0 0 0 0 0 0 0 0 0 0 0 0 0 0 0 0 0 0 0 0 0 0 0 0 0 0 0 0 0 0
1 1 1 1 1 1 1 0 0 0 0 0 0 0 0 0 0 0 0 0 0 0 0 0 0 0 0 0 0 0 0 0 0 0 0 0 0 0 0 0 0 0 0
1 1 1 1 1 1 0 0 0 0 0 0 0 0 0 0 0 0 0 0 0 0 0 0 0 0 0 0 0 0 0 0 0 0 0 0 0 0 0 0 0 0 0
1 1 1 1 1 0 0 0 0 0 0 0 0 0 0 0 0 0 0 0 0 0 0 0 0 0 0 0 0 0 0 0 0 0 0 0 0 0 0 0 0 0 0
1 1 1 1 0 0 0 0 0 0 0 0 0 0 0 0 0 0 0 0 0 0 0 0 0 0 0 0 0 0 0 0 0 0 0 0 0 0 0 0 0 0 0
0 0 0 0 0 0 0 0 0 0 0 0 0 0 0 0 0 0 0 0 0 0 0 0 0 0 0 0 0 0 0 0 0 0 0 0 0 0 0 0 0 0 0
0 0 0 0 0 0 0 0 0 0 0 0 0 0 0 0 0 0 0 0 0 0 0 0 0 0 0 0 0 0 0 0 0 0 0 0 0 0 0 0 0 0 0
0 0 0 0 0 0 0 0 0 0 0 0 0 0 0 0 0 0 0 0 0 0 0 0 0 0 0 0 0 0 0 0 0 0 0 0 0 0 0 0 0 0 0
0 0 0 0 0 0 0 0 0 0 0 0 0 0 0 0 0 0 0 0 0 0 0 0 0 0 0 0 0 0 0 0 0 0 0 0 0 0 0 0 0 0 0
0 0 0 0 0 0 0 0 0 0 0 0 0 0 0 0 0 0 0 0 0 0 0 0 0 0 0 0 0 0 0 0 0 0 0 0 0 0 0 0 0 0 0
0 0 0 0 0 0 0 0 0 0 0 0 0 0 0 0 0 0 0 0 0 0 0 0 0 0 0 0 0 0 0 0 0 0 0 0 0 0 0 0 0 0 0
0 0 0 0 0 0 0 0 0 0 0 0 0 0 0 0 0 0 0 0 0 0 0 0 0 0 0 0 0 0 0 0 0 0 0 0 0 0 0 0 0 0 0
0 0 0 0 0 0 0 0 0 0 0 0 0 0 0 0 0 0 0 0 0 0 0 0 0 0 0 0 0 0 0 0 0 0 0 0 0 0 0 0 0 0 0
0 0 0 0 0 0 0 0 0 0 0 0 0 0 0 0 0 0 0 0 0 0 0 0 0 0 0 0 0 0 0 0 0 0 0 0 0 0 0 0 0 0 0
0 0 0 0 0 0 0 0 0 0 0 0 0 0 0 0 0 0 0 0 0 0 0 0 0 0 0 0 0 0 0 0 0 0 0 0 0 0 0 0 0 0 0
0 0 0 0 0 0 0 0 0 0 0 0 0 0 0 0 0 0 0 0 0 0 0 0 0 0 0 0 0 0 0 0 0 0 0 0 0 0 0 0 0 0 0
0 0 0 0 0 0 0 0 0 0 0 0 0 0 0 0 0 0 0 0 0 0 0 0 0 0 0 0 0 0 0 0 0 0 0 0 0 0 0 0 0 0 0
0 0 0 0 0 0 0 0 0 0 0 0 0 0 0 0 0 0 0 0 0 0 0 0 0 0 0 0 0 0 0 0 0 0 0 0 0 0 0 0 0 0 0
0 0 0 0 0 0 0 0 0 0 0 0 0 0 0 0 0 0 0 0 0 0 0 0 0 0 0 0 0 0 0 0 0 0 0 0 0 0 0 0 0 0 0
0 0 0 0 0 0 0 0 0 0 0 0 0 0 0 0 0 0 0 0 0 0 0 0 0 0 0 0 0 0 0 0 0 0 0 0 0 0 0 0 0 0 0
0 0 0 0 0 0 0 0 0 0 0 0 0 0 0 0 0 0 0 0 0 0 0 0 0 0 0 0 0 0 0 0 0 0 0 0 0 0 0 0 0 0 0
0 0 0 0 0 0 0 0 0 0 0 0 0 0 0 0 0 0 0 0 0 0 0 0 0 0 0 0 0 0 0 0 0 0 0 0 0 0 0 0 0 0 0
0 0 0 0 0 0 0 0 0 0 0 0 0 0 0 0 0 0 0 0 0 0 0 0 0 0 0 0 0 0 0 0 0 0 0 0 0 0 0 0 0 0 0
0 0 0 0 0 0 0 0 0 0 0 0 0 0 0 0 0 0 0 0 0 0 0 0 0 0 0 0 0 0 0 0 0 0 0 0 0 0 0 0 0 0 0
0 0 0 0 0 0 0 0 0 0 0 0 0 0 0 0 0 0 0 0 0 0 0 0 0 0 0 0 0 0 0 0 0 0 0 0 0 0 0 0 0 0 0
0 0 0 0 0 0 0 0 0 0 0 0 0 0 0 0 0 0 0 0 0 0 0 0 0 0 0 0 0 0 0 0 0 0 0 0 0 0 0 0 0 0 0
Wind_Speed
1 1 0 0 0 1 1 1 1 2 2 2 2 3 3 3 3 3 3 3 4 4 4 4 4 4 3 3 3 3 3 2 3 4 3 3 3 3 3 3 3 4 4
1 1 1 1 0 1 1 1 2 2 2 2 2 3 3 3 3 3 4 4 4 4 4 4 4 4 3 3 3 3 3 3 2 4 4 3 4 3 3 4 4 4 3
1 1 1 1 1 1 1 1 2 2 2 2 2 3 3 3 3 4 4 4 4 4 4 4 4 4 3 3 3 3 3 3 2 3 4 3 3 3 3 4 4 3 4
0 1 0 1 1 1 1 1 2 2 2 2 2 2 3 3 4 4 5 4 4 4 4 4 3 3 3 3 3 3 3 3 3 3 3 3 3 3 2 2 3 2 3
0 0 1 1 1 0 1 1 2 2 2 2 2 2 2 3 3 4 5 5 4 4 4 3 3 3 3 3 3 3 4 3 3 3 3 2 3 2 2 2 2 2 3
1 1 1 1 1 0 0 1 1 2 2 2 2 3 3 4 5 6 5 4 4 4 4 3 3 3 3 3 5 5 5 4 3 3 3 3 4 3 3 3 3 2 3
2 2 1 1 0 0 1 1 2 2 2 2 2 2 2 3 4 5 6 5 4 4 4 3 4 4 3 3 4 5 5 7 7 4 5 5 4 4 4 4 3 3 4
3 2 1 0 0 0 1 1 2 2 2 2 2 2 2 3 4 4 6 5 4 4 4 3 3 3 4 5 5 4 4 4 4 5 5 5 5 4 4 5 4 4 5
3 1 1 0 0 1 1 1 1 2 2 2 2 2 2 2 3 4 4 4 4 4 4 3 3 2 4 5 4 5 5 5 5 6 7 7 8 9 6 4 4 3 4
3 2 1 0 1 1 1 1 2 2 2 2 2 2 2 2 2 3 3 3 4 4 3 2 2 2 4 4 3 4 5 6 6 7 6 7 7 8 9 6 5 4 4
3 1 1 0 0 1 0 1 2 2 3 3 3 2 1 1 2 3 3 3 4 5 4 3 2 4 5 5 5 5 7 7 7 6 6 5 4 4 4 5 5 4 4
2 1 0 0 1 1 0 1 2 2 3 2 2 3 2 1 1 2 4 5 6 5 5 4 4 6 8 8 6 7 10 8 6 5 5 4 4 3 3 3 4 4 5
1 1 1 0 0 1 1 2 2 2 2 2 2 2 2 1 1 2 4 7 8 5 5 8 10 10 10 7 8 9 7 4 4 4 4 4 4 3 3 3 4 4 5
1 1 1 1 1 1 1 1 1 1 1 2 3 3 3 2 2 3 4 5 5 5 5 8 10 10 8 7 7 5 4 4 4 4 4 4 4 4 3 3 3 3 3
1 2 2 2 1 1 1 1 2 1 1 2 3 3 3 4 4 5 5 5 5 5 6 5 5 4 4 4 4 4 3 2 3 3 3 4 4 4 4 3 3 3 3
2 2 2 2 1 2 1 1 1 3 3 3 3 3 3 4 6 8 9 9 9 7 4 5 5 4 4 4 4 4 3 3 3 2 3 3 3 4 4 4 3 3 3
2 2 3 2 1 1 1 1 1 2 4 6 6 6 7 9 10 10 10 10 10 5 3 5 5 5 4 4 3 4 4 3 3 3 3 3 3 3 3 3 3 3 3
2 3 3 2 2 2 2 2 2 1 1 2 5 8 9 9 10 10 9 7 6 2 2 4 5 5 4 5 5 4 4 4 4 4 4 3 3 4 4 3 3 4 4
3 2 1 2 2 2 2 2 2 2 2 2 1 1 4 6 8 8 4 3 5 5 4 4 4 4 4 4 4 4 5 4 5 5 4 4 4 4 4 4 4 6 4
2 2 3 3 3 2 3 2 2 2 2 2 2 2 2 2 3 3 1 2 3 4 4 4 4 4 4 4 4 4 4 4 5 5 5 5 5 5 5 5 5 5 4
2 2 3 3 3 3 2 3 3 3 2 2 2 2 3 3 3 4 4 3 4 5 5 5 4 4 5 5 5 5 6 5 5 5 6 6 6 5 5 5 5 5 5
2 1 2 2 2 2 3 3 3 3 3 4 3 2 2 3 4 4 4 4 4 4 5 5 5 5 5 5 5 5 6 6 6 6 7 7 6 6 6 6 6 5 5
3 2 2 1 2 2 3 2 3 3 3 3 4 4 3 3 4 4 5 5 4 4 4 4 5 6 6 5 5 5 6 7 7 8 8 7 7 7 6 6 7 6 6
2 2 2 1 1 2 2 2 2 3 3 3 3 4 4 4 4 5 5 5 5 4 5 4 5 7 9 6 5 5 5 6 7 7 9 9 8 7 7 6 6 7 6
3 2 2 1 2 2 2 2 2 2 2 3 4 4 5 4 4 4 4 5 5 5 6 6 4 6 8 9 8 7 6 7 6 7 8 8 8 8 7 7 7 7 7
3 2 1 1 1 2 2 2 2 2 3 3 3 4 4 4 4 4 4 4 5 5 5 5 7 8 8 7 8 7 6 7 8 9 8 7 8 7 7 6 8 7 7
Wind_Direction
223 189 193 227 176 322 311 315 321 322 315 312 316 309 303 303 304 297 289 288 294 299 302 303 296 292 298 300 301 286 272 268 274 291 297 297 297 288 271 253 248 240 232
178 175 182 235 282 299 315 314 312 304 306 310 308 305 302 310 314 308 302 304 305 302 302 302 300 300 297 293 294 293 286 273 260 282 292 289 286 274 264 259 262 251 239
166 169 168 224 274 293 297 302 303 303 309 308 306 306 312 321 320 316 314 311 309 306 306 304 301 304 303 297 294 294 291 294 278 273 284 284 283 280 279 275 273 265 259
215 145 181 232 263 287 295 306 296 305 310 308 310 315 318 324 328 330 325 322 318 313 309 306 310 315 311 308 300 297 294 295 286 274 274 280 278 275 277 278 288 268 268
298 217 228 235 247 278 300 316 316 317 318 322 322 323 321 322 342 338 323 325 330 318 315 320 324 323 310 300 302 310 316 306 294 293 290 294 296 291 289 282 283 286 277
258 244 224 216 221 254 279 335 335 332 336 345 339 336 341 351 2 355 344 326 321 318 319 319 305 299 302 288 276 268 268 284 299 300 295 295 291 291 290 288 284 285 282
279 255 228 222 260 258 318 2 355 346 347 343 333 346 351 350 343 341 338 317 311 312 314 316 318 329 334 324 299 282 270 260 250 255 275 279 280 287 293 293 289 283 277
289 262 256 111 153 333 11 8 1 340 329 328 328 327 324 335 333 327 322 306 303 304 301 300 304 324 342 333 317 314 307 292 264 250 259 268 270 270 270 270 267 270 269
296 303 3 341 94 20 19 5 353 336 335 327 314 307 314 321 323 319 318 304 298 304 308 317 314 335 331 323 313 312 310 302 291 282 268 264 264 264 264 273 272 270 278
311 309 321 35 51 39 27 351 327 313 306 304 313 308 311 323 321 310 311 302 307 308 303 301 316 321 321 317 303 306 304 304 312 310 294 274 262 255 245 234 249 261 265
306 306 12 28 224 149 50 314 300 300 306 302 306 301 293 287 288 286 287 291 307 311 313 315 315 317 310 301 294 280 278 289 296 291 288 284 269 258 247 233 229 237 257
312 332 30 315 301 8 253 276 285 291 301 297 300 300 285 265 284 288 287 286 294 303 307 312 312 310 308 302 293 278 284 291 281 280 284 286 286 281 272 257 244 237 238
313 351 332 305 266 292 282 283 289 285 297 320 326 325 326 346 17 335 304 296 293 287 297 305 302 296 295 289 276 278 282 275 275 282 287 288 287 289 293 289 275 260 255
316 304 270 251 252 264 277 286 297 318 340 338 341 338 343 354 8 352 327 313 302 297 305 304 298 287 282 282 287 280 256 260 271 283 294 294 298 300 294 287 280 275 270
288 264 263 260 245 257 247 274 294 333 323 305 322 329 339 341 344 340 326 326 330 336 323 302 296 297 298 292 284 278 269 263 270 282 289 295 297 296 296 294 289 290 281
259 263 266 258 239 243 242 275 241 229 242 245 255 277 305 295 306 315 317 317 316 323 319 301 305 306 305 307 313 314 314 311 295 278 278 282 290 303 309 307 300 295 296
254 267 274 277 269 249 265 263 258 246 250 253 257 261 259 278 293 300 307 315 310 316 305 306 312 312 314 322 327 328 326 328 324 317 310 310 313 310 303 299 303 305 303
260 258 262 277 287 286 282 275 275 283 279 258 243 242 253 266 277 290 309 325 313 309 302 311 319 327 337 342 342 338 336 338 337 328 323 325 317 309 308 309 302 295 295
271 275 277 300 301 301 294 297 317 318 315 323 319 255 256 272 279 289 305 305 314 328 337 338 341 346 350 349 345 342 344 345 344 339 337 330 325 322 322 325 322 317 307
243 246 260 277 288 293 300 320 324 319 331 349 357 5 349 321 322 323 313 308 324 334 340 345 347 350 350 348 346 348 341 342 350 352 343 337 335 333 329 325 322 322 318
253 208 214 252 280 309 318 314 313 329 350 349 4 39 354 334 339 339 350 355 351 349 351 346 343 353 356 352 351 351 353 357 1 353 342 332 328 327 323 322 319 318 320
280 262 233 261 280 301 314 314 334 347 357 0 350 338 324 328 344 350 356 1 4 0 359 356 358 5 8 5 2 0 2 1 354 344 332 327 328 325 322 320 322 324 325
268 270 259 265 288 299 294 323 352 355 4 8 344 337 346 354 353 0 2 3 2 3 359 360 3 9 14 17 18 19 12 1 343 334 330 327 325 322 319 320 323 327 329
273 283 288 292 312 324 335 351 350 355 358 1 346 338 352 5 5 7 3 1 1 2 1 8 16 22 22 17 16 23 23 0 340 334 332 321 318 319 323 323 323 330 329
272 278 287 305 326 331 335 347 351 355 353 354 354 355 1 5 11 13 5 2 356 2 5 8 15 24 24 25 20 18 9 353 344 333 320 313 314 318 323 325 327 329 331
285 285 290 316 321 321 332 350 355 360 3 4 0 0 2 0 4 7 1 359 358 2 5 9 21 32 28 27 22 16 360 345 338 330 317 307 312 325 332 326 329 329 330